Hourly Weather Bolshoy Vyas

Today, 28 July, Wednesday

Time Temperature Precipitation Wind Pressure Humidity
00:00 +16°C° 0 mm 0 mps 749 mmHg 75%
01:00 +16°C° 0 mm 0 mps 749 mmHg 76%
02:00 +16°C° 0 mm 1 mps 749 mmHg 77%
03:00 +16°C° 0 mm 1 mps 749 mmHg 78%
04:00 +18°C° 0.1 mm 1 mps 749 mmHg 79%
05:00 +18°C° 0.1 mm 1 mps 749 mmHg 80%
06:00 +19°C° 0.1 mm 1 mps 749 mmHg 82%
07:00 +20°C° 0 mm 1 mps 749 mmHg 74%
08:00 +21°C° 0 mm 2 mps 749 mmHg 66%
09:00 +24°C° 0 mm 2 mps 749 mmHg 56%
10:00 +25°C° 0 mm 2 mps 748 mmHg 52%
11:00 +27°C° 0 mm 2 mps 748 mmHg 47%
12:00 +28°C° 0 mm 2 mps 748 mmHg 43%
13:00 +28°C° 0 mm 3 mps 748 mmHg 41%
14:00 +28°C° 0 mm 3 mps 748 mmHg 40%
15:00 +28°C° 0 mm 3 mps 747 mmHg 39%
16:00 +28°C° 0 mm 2 mps 747 mmHg 44%
17:00 +27°C° 0 mm 2 mps 747 mmHg 49%
18:00 +26°C° 0 mm 1 mps 747 mmHg 53%
19:00 +25°C° 0 mm 1 mps 747 mmHg 56%
20:00 +23°C° 0 mm 1 mps 747 mmHg 58%
21:00 +21°C° 0 mm 2 mps 747 mmHg 60%
22:00 +20°C° 0 mm 2 mps 747 mmHg 63%
23:00 +20°C° 0 mm 2 mps 747 mmHg 65%

Tomorrow, 29 July, Thursday

Time Temperature Precipitation Wind Pressure Humidity
00:00 +19°C° 0 mm 2 mps 746 mmHg 67%
01:00 +19°C° 0.1 mm 2 mps 746 mmHg 72%
02:00 +20°C° 0.1 mm 1 mps 746 mmHg 76%
03:00 +19°C° 0.1 mm 1 mps 745 mmHg 81%
04:00 +19°C° 0.4 mm 1 mps 745 mmHg 85%
05:00 +19°C° 0.4 mm 1 mps 745 mmHg 89%
06:00 +19°C° 0.4 mm 1 mps 745 mmHg 93%
07:00 +18°C° 0.3 mm 2 mps 745 mmHg 92%
08:00 +19°C° 0.3 mm 2 mps 744 mmHg 90%
09:00 +19°C° 0.3 mm 2 mps 744 mmHg 89%
10:00 +21°C° 0 mm 3 mps 744 mmHg 80%
11:00 +22°C° 0 mm 4 mps 743 mmHg 72%
12:00 +25°C° 0 mm 4 mps 743 mmHg 63%
13:00 +26°C° 0 mm 4 mps 742 mmHg 59%
14:00 +27°C° 0 mm 4 mps 742 mmHg 55%
15:00 +28°C° 0 mm 4 mps 742 mmHg 51%
16:00 +27°C° 0.2 mm 4 mps 741 mmHg 58%
17:00 +26°C° 0.2 mm 4 mps 741 mmHg 65%
18:00 +25°C° 0.2 mm 3 mps 741 mmHg 72%
19:00 +22°C° 0.4 mm 3 mps 741 mmHg 77%
20:00 +21°C° 0.4 mm 2 mps 741 mmHg 82%
21:00 +20°C° 0.4 mm 2 mps 741 mmHg 87%
22:00 +19°C° 0 mm 2 mps 741 mmHg 88%
23:00 +19°C° 0 mm 2 mps 741 mmHg 90%

Day after tomorrow, 30 July, Friday

Time Temperature Precipitation Wind Pressure Humidity
00:00 +19°C° 0 mm 2 mps 741 mmHg 91%
01:00 +18°C° 0 mm 2 mps 741 mmHg 91%
02:00 +18°C° 0 mm 2 mps 741 mmHg 92%
03:00 +18°C° 0 mm 2 mps 741 mmHg 92%
04:00 +18°C° 0 mm 2 mps 742 mmHg 90%
05:00 +20°C° 0 mm 1 mps 742 mmHg 88%
06:00 +21°C° 0 mm 1 mps 742 mmHg 86%
07:00 +23°C° 0 mm 1 mps 742 mmHg 77%
08:00 +25°C° 0 mm 2 mps 742 mmHg 69%
09:00 +27°C° 0 mm 3 mps 742 mmHg 61%
10:00 +28°C° 0 mm 3 mps 742 mmHg 55%
11:00 +29°C° 0 mm 3 mps 742 mmHg 48%
12:00 +32°C° 0 mm 4 mps 742 mmHg 42%
13:00 +30°C° 0 mm 3 mps 742 mmHg 43%
14:00 +30°C° 0 mm 3 mps 742 mmHg 45%
15:00 +30°C° 0 mm 3 mps 741 mmHg 47%
16:00 +29°C° 0 mm 3 mps 741 mmHg 51%
17:00 +28°C° 0 mm 2 mps 741 mmHg 56%
18:00 +27°C° 0 mm 2 mps 741 mmHg 60%
19:00 +25°C° 1.3 mm 2 mps 741 mmHg 72%
20:00 +23°C° 1.3 mm 2 mps 741 mmHg 83%
21:00 +20°C° 1.3 mm 1 mps 741 mmHg 94%
22:00 +20°C° 0.4 mm 1 mps 741 mmHg 95%
23:00 +19°C° 0.4 mm 2 mps 741 mmHg 96%

31 July, Saturday

Time Temperature Precipitation Wind Pressure Humidity
00:00 +19°C° 0.4 mm 2 mps 741 mmHg 96%
01:00 +19°C° 0 mm 2 mps 741 mmHg 96%
02:00 +19°C° 0 mm 2 mps 741 mmHg 97%
03:00 +19°C° 0 mm 2 mps 741 mmHg 97%
04:00 +19°C° 0 mm 2 mps 741 mmHg 96%
05:00 +20°C° 0 mm 1 mps 741 mmHg 95%
06:00 +21°C° 0 mm 1 mps 742 mmHg 94%
07:00 +21°C° 0.1 mm 2 mps 742 mmHg 88%
08:00 +24°C° 0.1 mm 2 mps 742 mmHg 81%
09:00 +25°C° 0.1 mm 3 mps 742 mmHg 75%
10:00 +27°C° 0 mm 4 mps 742 mmHg 65%
11:00 +28°C° 0 mm 4 mps 742 mmHg 55%
12:00 +29°C° 0 mm 5 mps 742 mmHg 45%
13:00 +29°C° 0 mm 5 mps 742 mmHg 44%
14:00 +29°C° 0 mm 5 mps 742 mmHg 43%
15:00 +29°C° 0 mm 5 mps 743 mmHg 42%
16:00 +29°C° 0 mm 5 mps 743 mmHg 43%
17:00 +28°C° 0 mm 4 mps 743 mmHg 45%
18:00 +27°C° 0 mm 3 mps 743 mmHg 47%
19:00 +26°C° 0 mm 3 mps 743 mmHg 50%
20:00 +24°C° 0 mm 2 mps 743 mmHg 54%
21:00 +21°C° 0 mm 2 mps 744 mmHg 57%
22:00 +21°C° 0 mm 2 mps 744 mmHg 57%
23:00 +21°C° 0 mm 2 mps 744 mmHg 58%

1 August, Sunday

Time Temperature Precipitation Wind Pressure Humidity
00:00 +20°C° 0 mm 2 mps 744 mmHg 58%
01:00 +20°C° 0 mm 2 mps 744 mmHg 61%
02:00 +19°C° 0 mm 2 mps 744 mmHg 64%
03:00 +18°C° 0 mm 2 mps 744 mmHg 68%
04:00 +20°C° 0 mm 1 mps 745 mmHg 68%
05:00 +21°C° 0 mm 1 mps 745 mmHg 69%
06:00 +21°C° 0 mm 1 mps 745 mmHg 69%
07:00 +23°C° 0 mm 2 mps 745 mmHg 62%
08:00 +25°C° 0 mm 2 mps 746 mmHg 55%
09:00 +27°C° 0 mm 2 mps 746 mmHg 48%
10:00 +28°C° 0 mm 3 mps 746 mmHg 45%
11:00 +29°C° 0 mm 3 mps 746 mmHg 41%
12:00 +32°C° 0 mm 4 mps 746 mmHg 38%
13:00 +32°C° 0 mm 4 mps 745 mmHg 37%
14:00 +32°C° 0 mm 4 mps 745 mmHg 36%
15:00 +33°C° 0 mm 4 mps 745 mmHg 35%
16:00 +31°C° 0 mm 3 mps 745 mmHg 40%
17:00 +30°C° 0 mm 2 mps 745 mmHg 45%
18:00 +29°C° 0 mm 1 mps 745 mmHg 50%
19:00 +28°C° 0 mm 1 mps 745 mmHg 53%
20:00 +26°C° 0 mm 2 mps 745 mmHg 56%
21:00 +24°C° 0 mm 2 mps 745 mmHg 59%
22:00 +23°C° 0 mm 2 mps 745 mmHg 60%
23:00 +23°C° 0 mm 2 mps 745 mmHg 62%

2 August, Monday

Time Temperature Precipitation Wind Pressure Humidity
00:00 +21°C° 0 mm 2 mps 745 mmHg 64%
01:00 +21°C° 0 mm 2 mps 745 mmHg 65%
02:00 +20°C° 0 mm 2 mps 745 mmHg 65%
03:00 +20°C° 0 mm 2 mps 745 mmHg 66%
04:00 +21°C° 0 mm 2 mps 745 mmHg 65%
05:00 +21°C° 0 mm 2 mps 745 mmHg 64%
06:00 +21°C° 0 mm 2 mps 745 mmHg 64%
07:00 +25°C° 0 mm 2 mps 745 mmHg 57%
08:00 +27°C° 0 mm 3 mps 745 mmHg 51%
09:00 +29°C° 0 mm 3 mps 745 mmHg 45%
10:00 +31°C° 0 mm 3 mps 745 mmHg 42%
11:00 +33°C° 0 mm 3 mps 745 mmHg 40%
12:00 +35°C° 0 mm 3 mps 744 mmHg 37%
13:00 +35°C° 0 mm 3 mps 744 mmHg 35%
14:00 +36°C° 0 mm 3 mps 744 mmHg 34%
15:00 +36°C° 0 mm 4 mps 743 mmHg 32%
16:00 +35°C° 0 mm 4 mps 743 mmHg 36%
17:00 +34°C° 0 mm 3 mps 743 mmHg 39%
18:00 +34°C° 0 mm 3 mps 742 mmHg 43%
19:00 +30°C° 0 mm 3 mps 742 mmHg 48%
20:00 +27°C° 0 mm 2 mps 743 mmHg 52%
21:00 +25°C° 0 mm 2 mps 743 mmHg 57%
22:00 +24°C° 0 mm 2 mps 743 mmHg 59%
23:00 +23°C° 0 mm 2 mps 742 mmHg 62%
Show more

We Need Your Consent

Meteoprog and our Service Providers may store and access personal data such as cookies, device identifiers or other similar technologies on your device and process such data to personalise content and ads, as well as provide social media features and to analyse the traffic.

  • Store and/or access information on your device

    Cookies, device identifiers or other information can be stored or accessed on your device for the purposes indicated above.

  • Personalised ads and content, ad and content measurement, audience insights, and products development

    Ads and content can be personalised based on a profile. More data can be added to better personalise ads and content. Ad and content performance can be measured. Insights about the audience who saw the ads and content can be derived. Such data can be used to develop or improve user’s experience, systems and software.

By clicking ‘I Agree’ you will allow the use of indicated cookies, device identifiers, web beacons or other similar technologies. Your settings can be changed in the browser on your device.

For certain purposes, legitimate interests may be relied on, rather than consent. You can read more about this in our Privacy and Cookie Policy.